Regional Weather Roundup
Issued by NWS

Home | Current Version | Previous Version | Graphics & Text | Print | Product List | Glossary On
Versions: 1 2 3 4 5 6 7 8 9 10 11 12 13 14 15 16 17 18 19 20 21 22 23 24 25 26 27 28 29 30 31 32 33 34 35 36 37 38 39 40 41 42 43 44 45 46 47 48 49 50
506
ASUS43 KLOT 071608
RWRIL

ILLINOIS REGIONAL WEATHER ROUNDUP
NATIONAL WEATHER SERVICE CHICAGO/ROMEOVILLE IL
1000 AM CST SUN FEB 07 2016

NOTE: "FAIR" INDICATES FEW OR NO CLOUDS BELOW 12,000 FEET WITH NO
SIGNIFICANT WEATHER AND/OR OBSTRUCTIONS TO VISIBILITY.

* THESE STATIONS ARE NOT UNDER NWS QUALITY CONTROL. THEY ALSO MAY NOT
  REPORT WEATHER SUCH AS PRECIPITATION OR FOG.

ILZ001-002-007-009-015-016-024-071700-
NORTHWEST ILLINOIS

CITY           SKY/WX    TMP DP  RH WIND       PRES   REMARKS
MOLINE         CLOUDY    40  29  64 W15       29.81S
STERLING*      CLOUDY    37  30  75 SW9G16    29.77F WCI  31
SAVANNA*       MOSUNNY   39  30  70 W13       29.78F WCI  32
$$

ILZ003-004-008-010-011-017-018-071700-
NORTH CENTRAL ILLINOIS

CITY           SKY/WX    TMP DP  RH WIND       PRES   REMARKS
ROCKFORD       CLOUDY    40  29  64 SW13G23   29.78F
FREEPORT*      CLOUDY    37  31  78 SW14      29.76F WCI  28
ROCHELLE*      CLOUDY    37  31  79 SW15G24   29.79S WCI  28
DE KALB*       CLOUDY    38  31  74 SW14G20   29.78F WCI  30
$$

ILZ005-006-012>014-019>023-071700-
NORTHEAST ILLINOIS

CITY           SKY/WX    TMP DP  RH WIND       PRES   REMARKS
CHICAGO-OHARE  CLOUDY    40  29  64 SW17G23   29.78F
CHICAGO-MIDWAY CLOUDY    43  28  55 SW16G29   29.80F
AURORA         MOSUNNY   41  30  65 SW14      29.80F
LANSING*       CLOUDY    40  31  68 SW18G24   29.83F
JOLIET*        CLOUDY    43  32  65 SW15G21   29.82F
WAUKEGAN       CLOUDY    41  30  65 SW13G28   29.74F
DUPAGE AIRPORT CLOUDY    39  28  64 SW16      29.79F WCI  30
KANKAKEE*      MOSUNNY   40  31  69 SW18G24   29.86F
WHEELING       MOSUNNY   41  29  62 SW12G23   29.78F
MORRIS*        CLOUDY    41  32  69 SW16G24   29.79F
ROMEOVILLE*    CLOUDY    40  30  66 SW15G22   29.81F
NORTHERLY ISL    N/A     42  28  58 S7          N/A
$$

LMZ740>746-071700-
SOUTHERN LAKE MICHIGAN

STATION/POSITION SKY/WX   TEMP    WIND        PRES    VSBY  WAVE
                          AIR SEA DIR/SP/G                  HT/PER
                          (F)     (DEG/KT/KT) (MB)    (MI)  (FT/S)
HARRISON CRIB              40     210/ 20/ 24   N/A
BURNHAM HARBOR             42     230/  8/ 13   N/A
CALUMET HARBOR             39     200/ 14/ 25 1009.6F
BURNS HARBOR               41     210/ 17/ 27 1010.8F
MICHIGAN CITY              40     180/ 18/ 23   N/A
$$

ILZ025>027-034>036-040-047-049-050-058-095>099-071700-
WEST-CENTRAL ILLINOIS

CITY           SKY/WX    TMP DP  RH WIND       PRES   REMARKS
QUINCY         SUNNY     44  29  55 W15G24    29.89F HAZE
GALESBURG*     CLOUDY    40  31  70 SW12      29.84F
MACOMB*        MOSUNNY   42  31  67 W17       29.88S
JACKSONVILLE*  PTSUNNY   45  32  59 SW18      29.90F
PITTSFIELD*    MOSUNNY   44  30  56 SW17G24   29.92F
$$

ILZ028>032-037-038-041>044-048-051>054-059>061-071700-
CENTRAL ILLINOIS

CITY           SKY/WX    TMP DP  RH WIND       PRES   REMARKS
PONTIAC        CLOUDY    43  33  67 SW17G26   29.85F
BLOOMINGTON    CLOUDY    43  32  65 SW20G26   29.87F
DECATUR        SUNNY     45  29  53 SW17      29.92F
PEORIA         CLOUDY    44  29  55 SW13      29.86F
LACON*         CLOUDY    42  28  58 SW15G21   29.83F
LINCOLN*       MOSUNNY   45  32  61 SW10G17   29.89F
SPRINGFIELD    CLOUDY    44  30  57 SW13      29.91F
TAYLORVILLE    MOSUNNY   43  32  65 SW22G29   29.93F
$$

ILZ033-039-045-046-055>057-062-063-071700-
EAST-CENTRAL ILLINOIS

CITY           SKY/WX    TMP DP  RH WIND       PRES   REMARKS
CHAMPAIGN      SUNNY     42  31  64 SW17      29.93F
RANTOUL*       CLOUDY    42  32  67 SW20G28   29.91S
MATTOON        SUNNY     44  28  53 S14G23    29.95F
PARIS*         CLOUDY    43  31  63 SW21G26   29.98F
$$

ILZ079-100>102-071700-
SOUTHWEST ILLINOIS

CITY           SKY/WX    TMP DP  RH WIND       PRES   REMARKS
ALTON          PTSUNNY   46  30  53 SW14G25   29.96F
BELLEVILLE     MOSUNNY   49  29  46 SW14G22   29.98F
CAHOKIA*       SUNNY     47  26  44 SW12      29.98F
SPARTA*        CLOUDY    47  29  49 SW9       30.03F
$$

ILZ064>066-069>071-074>076-080>082-084>086-088>090-092>094-071700-
SOUTH-CENTRAL ILLINOIS

CITY           SKY/WX    TMP DP  RH WIND       PRES   REMARKS
CARBONDALE     MOSUNNY   48  26  42 S13       30.07F
CAIRO*         SUNNY     46  31  56 S12G20    30.13S
EFFINGHAM*     MOSUNNY   47  32  55 S16       30.00F
MT. VERNON     SUNNY     46  28  49 S17       30.04F
CENTRALIA*     MOSUNNY   48  32  55 SW16      30.01F
SALEM*         SUNNY     49  30  48 SW15      30.01F
METROPOLIS*    SUNNY     49  29  46 SW13G18   30.13F
$$

ILZ067-068-072-073-078-083-087-091-071700-
SOUTHEAST ILLINOIS

CITY           SKY/WX    TMP DP  RH WIND       PRES   REMARKS
LAWRENCEVILLE  SUNNY     46  29  51 SW15      30.06F
FLORA*         SUNNY     48  30  50 S15       30.03F
FAIRFIELD*     SUNNY     47  30  51 S12G21    30.04F
HARRISBURG*    SUNNY     46  29  51 S10       30.09F
ROBINSON*      CLOUDY    46  30  52 SW13      30.04F
CARMI*         SUNNY     46  31  56 S13       30.07F
$$

ABBREVIATIONS USED IN REMARKS
   TC - TEMPERATURE IN CELSIUS
  WCI - WIND CHILL INDEX
   HX - HEAT INDEX
  VSB - VISIBILITY
$$





USA.gov is the U.S. government's official web portal to all federal, state and local government web resources and services.